Weather History for KDMH - April, 2013

Change the Weather History Date:

Tuesday, April 23, 2013

  Actual Average Record
Temperature  
Mean Temperature 57 °F 59 °F  
Max Temperature 65 °F 68 °F 82 °F (2001)
Min Temperature 49 °F 50 °F 41 °F (2002)
Degree Days  
Heating Degree Days 8 7  
Month to date heating degree days 164 236  
Since 1 July heating degree days 3311 3903  
Cooling Degree Days 0 1  
Month to date cooling degree days 51 16  
Year to date cooling degree days 51 17  
Growing Degree Days 7 (Base 50)    
Moisture  
Dew Point 40 °F    
Average Humidity 54    
Maximum Humidity 71    
Minimum Humidity 37    
Precipitation  
Precipitation 0.00 in 0.10 in 0.46 in (2004)
Month to date precipitation 1.68 2.52  
Year to date precipitation 9.80 11.90  
Sea Level Pressure  
Sea Level Pressure 30.26 in    
Wind  
Wind Speed - (North)    
Max Wind Speed -    
Max Gust Speed -    
T = Trace of Precipitation, MM = Missing Value Source: NWS Daily Summary

Daily Weather History Graph

Daily Weather History Graph

Search for Another Location

Airport or City:

Trip Planner

Search our weather history database for the weather conditions in past years. The results will help you decide how hot, cold, wet, or windy it might be!

Date:

Astronomy

Apr. 23, 2013 Rise Set
Actual Time 6:17 AM EDT 7:52 PM EDT
Civil Twilight 5:49 AM EDT 8:20 PM EDT
Nautical Twilight 5:15 AM EDT 8:54 PM EDT
Astronomical Twilight 4:39 AM EDT 9:31 PM EDT
Moon 5:45 PM EDT (4/23) 4:43 AM EDT (4/23)
Length of Visible Light 14h 30m
Length of Day
13h 34m
Waxing Gibbous, 94% of the Moon is Illuminated
Apr 23
Waxing Gibbous
Apr 25
Full
May 2
Last Quarter
May 9
New
May 18
First Quarter

Hourly Weather History & Observations

Time (EDT) Temp. Dew Point Humidity Pressure Visibility Wind Dir Wind Speed Gust Speed Precip Events Conditions
12:54 AM 51.1 °F 37.9 °F 61% 30.42 in - North - - N/A   Unknown
1:54 AM 51.1 °F 37.9 °F 61% 30.39 in - North - - N/A   Unknown
2:54 AM 50.0 °F 39.0 °F 66% 30.37 in - North - - N/A   Unknown
3:54 AM 50.0 °F 39.0 °F 66% 30.35 in - North - - N/A   Unknown
4:54 AM 50.0 °F 39.9 °F 68% 30.34 in - North - - N/A   Unknown
5:54 AM 50.0 °F 39.9 °F 68% 30.32 in - North - - N/A   Unknown
6:54 AM 50.0 °F 39.0 °F 66% 30.33 in - North - - N/A   Unknown
7:54 AM 50.0 °F 37.9 °F 63% 30.33 in - North - - N/A   Unknown
8:54 AM 50.0 °F 37.9 °F 63% 30.33 in - North - - N/A   Unknown
9:54 AM 52.0 °F 37.9 °F 59% 30.32 in - North - - N/A   Unknown
10:54 AM 54.0 °F 37.9 °F 55% 30.30 in - North - - N/A   Unknown
11:54 AM 55.9 °F 39.0 °F 53% 30.28 in - North - - N/A   Unknown
12:54 PM 59.0 °F 39.0 °F 48% 30.25 in - North - - N/A   Unknown
1:54 PM 60.1 °F 37.9 °F 44% 30.25 in - North - - N/A   Unknown
2:54 PM 62.1 °F 39.0 °F 43% 30.23 in - North - - N/A   Unknown
3:54 PM 64.0 °F 37.9 °F 38% 30.19 in - North - - N/A   Unknown
4:54 PM 64.9 °F 41.0 °F 42% 30.17 in - North - - N/A   Unknown
5:54 PM 61.0 °F 41.0 °F 48% 30.16 in - North - - N/A   Unknown
6:54 PM 60.1 °F 42.1 °F 51% 30.15 in - North - - N/A   Unknown
7:54 PM 59.0 °F 42.1 °F 53% 30.16 in - North - - N/A   Unknown
8:54 PM 57.0 °F 43.0 °F 59% 30.16 in - North - - N/A   Unknown
9:54 PM 55.9 °F 44.1 °F 64% 30.17 in - North - - N/A   Unknown
10:54 PM 55.0 °F 45.0 °F 69% 30.15 in - North - - N/A   Unknown
11:54 PM 54.0 °F 45.0 °F 72% 30.14 in - North - - N/A   Unknown